www.pogodaiklimat.ru

Погода и климат >> Архив погоды >> Россия >> Магаданская область >> Совхоз Эльген


ПОГОДА в Совхозе Эльген

  • Прогноз погоды в Совхозе Эльген
  • Монитор погоды в Совхозе Эльген
  • Климат города

АРХИВ ПОГОДЫ в Совхозе Эльген

Время (UTC), дата Ветер
(напр.,м/с)
 
Видим.   Явления Облачность Т
(С)
Тd
(С)
f
(%)
Тe
(С)
Тes
(С)
Комфортность P
(гПа)
Po
(гПа)
Тmin
(С)
Tmax
(С)
R
(мм)
R24
(мм)
S
(см)
03 12.11 З 1 50 км ясно -28.8 -34.8 56 -33 -32 опасность
обморожения
1039.7 995.4
06 12.11 штиль 0 50 км 1/0
[Ci fib]
-33.1 -36.7 70 -33 -33 опасность
обморожения
1039.9 994.8
09 12.11 штиль 0 50 км ясно -36.1 -40.0 67 -36 -36 опасность
обморожения
1040.2 994.5 -28.5
12 12.11 штиль 0 50 км ясно -37.4 -41.3 67 -37 -37 опасность
обморожения
1040.1 994.2
15 12.11 штиль 0 50 км ясно -37.7 -41.7 66 -38 -38 опасность
обморожения
1040.5 994.6
18 12.11 штиль 0 50 км ясно -38.3 -42.4 65 -38 -38 опасность
обморожения
1040.9 994.8
21 12.11 штиль 0 50 км ясно -37.7 -41.7 66 -38 -38 опасность
обморожения
1041.0 995.0 -39.0 30
00 13.11 Ю 1 50 км ясно -33.6 -37.9 65 -38 -38 опасность
обморожения
1039.9 994.7
03 13.11 штиль 0 50 км ясно -27.8 -33.8 56 -28 -27 1037.1 993.1
06 13.11 штиль 0 50 км 3/0
[Ac trans]
-31.1 -34.8 70 -31 -31 опасность
обморожения
1036.5 991.9
09 13.11 штиль 0 50 км 8/0
[Ac trans]
-28.0 -31.7 70 -28 -28 1035.1 991.2 -27.3
12 13.11 штиль 0 50 км 8/3 1000 м
[Sc Ac trans]
-28.6 -31.7 75 -29 -29 1034.4 990.4
15 13.11 штиль 0 50 км 8/3 1000 м
[Sc Ac trans]
-26.4 -30.2 70 -26 -26 1033.2 989.6
18 13.11 СЗ 1 50 км 10/5 1000 м
[Sc Ac trans]
-25.4 -29.5 68 -29 -29 1032.5 989.1
21 13.11 штиль 0 50 км 10/8 1000 м
[Sc Ac trans]
-24.3 -28.3 69 -24 -24 1031.8 988.6 -30.1 30
00 14.11 З 1 50 км 10/8 1000 м
[Sc Ac trans]
-23.0 -27.8 65 -26 -26 1031.6 988.6
03 14.11 ЮЗ 1 50 км 8/4 1000 м
[Sc Ac trans Ci fib]
-20.0 -26.3 57 -23 -23 1029.8 987.4
06 14.11 штиль 0 50 км 8/3 1000 м
[Sc Ac trans Ci fib]
-22.8 -26.8 70 -23 -23 1030.1 987.2
09 14.11 штиль 0 50 км 4/0
[Ci fib]
-26.8 -29.7 76 -27 -27 1030.8 987.2 -19.8
12 14.11 штиль 0 50 км 3/0
[Ci fib]
-28.3 -31.3 75 -28 -28 1031.2 987.3
15 14.11 штиль 0 50 км 3/0
[Ci fib]
-28.8 -31.8 75 -29 -29 1031.1 987.2
18 14.11 штиль 0 50 км ясно -29.7 -32.7 75 -30 -30 1031.2 987.1
21 14.11 штиль 0 50 км 3/0
[Ci fib]
-31.2 -34.5 73 -31 -31 опасность
обморожения
1031.5 987.2 -31.3 30
00 15.11 штиль 0 50 км 3/0
[Ci fib]
-26.9 -31.2 67 -27 -27 1030.7 987.1 -31.7
03 15.11 штиль 0 50 км 1/0
[Ci fib]
-22.4 -27.5 63 -22 -22 1028.9 986.2
06 15.11 штиль 0 50 км 1/1 1000 м
[Sc]
-26.8 -29.8 76 -27 -27 1029.1 985.6
09 15.11 штиль 0 50 км 4/0
[Ci fib]
-30.5 -33.7 73 -31 -31 опасность
обморожения
1029.6 985.4 -21.9
12 15.11 штиль 0 50 км 4/0
[Ci fib]
-30.4 -33.6 73 -30 -30 1028.9 984.8
15 15.11 З 1 50 км 9/0
[Ac trans Ci fib]
-28.6 -31.6 75 -33 -33 опасность
обморожения
1027.3 983.6
18 15.11 З 1 50 км 9/0
[Ac trans Ci fib]
-27.1 -30.2 75 -31 -31 опасность
обморожения
1026.1 982.7
21 15.11 штиль 0 50 км 10/0
[Ac und]
-27.0 -30.0 76 -27 -27 1025.4 982.0 -31.5 30
00 16.11 штиль 0 50 км 10/3 1000 м
[Sc Ac trans]
-26.2 -29.2 76 -26 -26 1024.4 981.2
03 16.11 штиль 0 50 км 10/5 1000 м
[Sc Ac trans]
-24.2 -27.2 76 -24 -24 1022.9 980.1
06 16.11 штиль 0 50 км 9/4 1000 м
[Sc Ac trans Ci fib]
-26.9 -29.7 77 -27 -27 1023.1 979.8
09 16.11 штиль 0 50 км 6/0
[Ac trans Ci fib]
-31.1 -34.3 73 -31 -31 опасность
обморожения
1024.0 980.0 -23.6
12 16.11 штиль 0 50 км 3/0
[Ci fib]
-31.7 -34.9 73 -32 -32 опасность
обморожения
1024.4 980.3
15 16.11 штиль 0 50 км ясно -33.9 -37.4 70 -34 -34 опасность
обморожения
1024.9 980.3
18 16.11 штиль 0 50 км ясно -35.1 -38.8 69 -35 -35 опасность
обморожения
1025.4 980.6
21 16.11 штиль 0 50 км ясно -36.1 -39.9 68 -36 -36 опасность
обморожения
1026.2 981.2 -36.1 30
00 17.11 штиль 0 50 км 3/0
[Ci fib]
-31.0 -35.7 63 -31 -31 опасность
обморожения
1026.0 981.9 -36.6
03 17.11 штиль 0 50 км ясно -28.0 -32.6 65 -28 -28 1025.1 981.5
06 17.11 штиль 0 50 км 6/3 1000 м
[Sc Ac trans Ci fib]
-31.8 -35.1 72 -32 -32 опасность
обморожения
1026.0 981.7
09 17.11 штиль 0 50 км 9/4 1000 м
[Sc Ac trans Ci fib]
-31.5 -34.8 72 -32 -32 опасность
обморожения
1026.6 982.4 -26.9
12 17.11 СЗ 1 50 км 10/6 1000 м
[Sc Ac trans]
-28.6 -31.8 74 -33 -33 опасность
обморожения
1026.7 983.0
15 17.11 штиль 0 50 км 10/8 1000 м
[Sc Ac trans]
-27.3 -30.7 73 -27 -27 1026.3 982.9
18 17.11 штиль 0 50 км 10/6 1000 м
[Sc Ac As]
-26.3 -29.2 76 -26 -26 1026.1 982.8
21 17.11 штиль 0 50 км 10/8 1000 м
[Sc Ac As]
-25.7 -28.5 77 -26 -26 1025.8 982.7 -31.4 29
00 18.11 штиль 0 50 км 10/10 1000 м
[Sc]
-24.6 -27.5 77 -25 -25 1025.3 982.3
03 18.11 штиль 0 20 км слабый снег 10/6 1000 м
[Sc Ac As]
-23.4 -26.1 78 -23 -23 1023.8 981.1
06 18.11 штиль 0 20 км слабый снег 10/6 1000 м
[Sc Ac As]
-22.6 -25.3 79 -23 -23 1023.4 980.8
09 18.11 штиль 0 20 км слабый снег 10/5 1000 м
[Sc Ac As]
-22.1 -24.8 79 -22 -22 1023.1 980.6 -22.1 0.3
12 18.11 штиль 0 20 км слабый снег 10/6 1000 м
[Sc Ac As]
-21.8 -24.4 79 -22 -22 1022.6 980.3
15 18.11 штиль 0 20 км слабый снег 10/6 1000 м
[Sc Ac As]
-21.4 -24.1 79 -21 -21 1022.3 980.0
18 18.11 штиль 0 20 км слабый снег 10/8 1000 м
[Sc Ac As]
-21.2 -23.8 79 -21 -21 1022.2 979.9
21 18.11 штиль 0 20 км слабый снег 10/8 1000 м
[Sc Ac As]
-21.1 -23.6 80 -21 -21 1022.4 980.1 -22.1 0.3 30

 

Местоположение метеостанции Совхоз Эльген (Магаданская область, Россия): широта 62.80 долгота 150.60 высота над уровнем моря 312 м.

В архиве по умолчанию представлена погода в Совхозе Эльген за последнюю неделю. Архивные данные за месяц целиком и за предыдущие месяцы, начиная с января 2011 года, Вы можете получить, выбрав интересующий диапазон дат из раскрывающегося списка и нажав кнопку "Ввод!".


*Определитесь, кто Вы:
робот инопланетянин человек

Внимание! Время в таблицах - всемирное. Для получения местного времени необходимо прибавить поправку, которая в Совхозе Эльген равна 11 ч.

Смотрите также архив погоды в соседних городах и на ближайших метеорологических станциях:

Погода в Ягодной (Магаданская область, Россия) (60 км)
Погода в Усть-Бохапче (Магаданская область, Россия) (78 км)
Погода в Сеймчане (Магаданская область, Россия) (92 км)
Погода в Среднекане (Магаданская область, Россия) (95 км)
Погода в Озере Джека Лондона (Магаданская область, Россия) (98 км)
Погода в Сусумане (Магаданская область, Россия) (127 км)
Погода в Колымской (Магаданская область, Россия) (188 км)
Погода в Усть-Омчуге (Магаданская область, Россия) (194 км)
Погода в Талае (Магаданская область, Россия) (206 км)
Погода в Балыгычане (Магаданская область, Россия) (214 км)

Пояснения к столбцам:

Ветер - указаны скорость ветра в м/с - средняя за 10 мин, порывы в срок и между сроками (в фигурных скобках) и направление, откуда дует ветер: С - северный, СВ - северо-восточный, В - восточный, ЮВ - юго-восточный, Ю - южный, ЮЗ - юго-западный, З - западный, СЗ - северо-западный.
Видимость - горизонтальная дальность видимости в метрах или километрах. При видимости от 1 до 10 км при отсутствии осадков обычно наблюдается дымка, при ухудшении видимости до 1 км и менее - туман. В сухую погоду видимость может ухудшаться дымом, пылью или мглою.
Явления - указаны атмосферные явления, наблюдавшиеся в срок или в последний час перед сроком; фигурными скобками обозначены явления, наблюдавшиеся между сроками (за 1-3 часа до срока); квадратными скобками обозначены град или гололедные отложения с указанием их диаметра в мм.
Облачность - указаны через наклонную черту общая и нижняя облачность в баллах и высота нижней границы облаков в метрах; квадратными скобками обозначены формы облаков: Ci - перистые, Cs - перисто-слоистые, Cc - перисто-кучевые, Ac - высококучевые, As - высокослоистые, Sc - слоисто-кучевые, Ns - слоисто-дождевые, Cu - кучевые, Cb - кучево-дождевые. Подробнее классификацию облаков см. в Атласе облаков (PDF).
T - Температура воздуха - температура, измеренная на высоте 2 м над землей.
Td - Температура точки росы - температура, при понижении до которой содержащийся в воздухе водяной пар достигнет насыщения.
f - Относительная влажность воздуха - влажноcть воздуха, измеренная на высоте 2 м над землей.
Te - Эффективная температура - температура, которую ощущает одетый по сезону человек в тени. Характеристика душности погоды. При расчете учитывается влияние влажности воздуха и скорости ветра на теплоощущения человека.
Tes - Эффективная температура на солнце - температура, которую ощущает человек, с поправкой на солнечный нагрев. Характеристика знойности погоды. Зависит от высоты солнца над горизонтом, облачности и скорости ветра. Ночью, в пасмурную погоду, а также при ветре 12 м/с и более поправка равна нулю.
P - Атмосферное давление - приведенное к уровню моря атмосферное давление.
Po - Атмосферное давление - измеренное на уровне метеостанции атмосферное давление.
Tmin - Минимальная температура - минимум температуры воздуха на высоте 2 м над землей.
Tmax - Максимальная температура - максимум температуры воздуха на высоте 2 м над землей.
R - Количество осадков - Количество выпавших осадков за период времени, мм. При наведении курсора мыши на число - период времени, за который выпало указанное количество осадков.
R24 - Количество осадков - Количество выпавших осадков за 24 часа, мм.
S - Снежный покров - Высота снежного покрова, см. При наведении курсора мыши на число - состояние снежного покрова и степень покрытия местности в баллах.